Lexington Weather

Lexington, Massachusetts, USA

76°F
7/25/2024 11:08am 
  • Lexington Conditions: Mostly cloudy
  • Temperature: 76.3°F / 24.6°CWarmer 1.6°F than last hour.
  • Dew Point: 71.8°F 
  • Relative Humidity: 86%Decreased 5.0% since last hour.
  • Wind: Wind from WSW WSW 2 mph, 10-min avg: 3 mph, gust: 8 mph
  • Barometer: 29.96 in Steady
  • Visibility: 10 miles
  • Rain Today: 0.00 in
  •   

Regional Weather Roundup
for Boston, MA

        
000
ASUS41 KBOX 241910
RWRBOX

REGIONAL WEATHER ROUNDUP
NATIONAL WEATHER SERVICE BOSTON/NORTON MA
300 PM EDT WED JUL 24 2024

NOTE:  "FAIR" INDICATES FEW OR NO CLOUDS BELOW 12,000 FEET WITH NO 
SIGNIFICANT WEATHER AND/OR OBSTRUCTIONS TO VISIBILITY.

MAZALL-242000-
EASTERN MASSACHUSETTS
  
CITY           SKY/WX    TMP DP  RH WIND       PRES   REMARKS
BOSTON         CLOUDY    66  64  93 E8        30.17F                  
BEVERLY        CLOUDY    70  64  81 E7        30.17S                  
LAWRENCE       CLOUDY    71  64  78 SE6       30.19S                  
BEDFORD        CLOUDY    74  64  71 NE7       30.15F                  
NORWOOD        CLOUDY    73  69  87 NE5       30.16F                  
MARSHFIELD     CLOUDY    66  64  94 CALM      30.16F                  
PLYMOUTH       CLOUDY    69  65  86 E6        30.15F                  
TAUNTON        CLOUDY    73  67  81 E5        30.14F                  
NEW BEDFORD    CLOUDY    73  70  90 E8        30.14F                  
$$

MAZALL-242000-
CAPE COD AND THE ISLANDS
  
CITY           SKY/WX    TMP DP  RH WIND       PRES   REMARKS
FALMOUTH       CLOUDY    66  66 100 E7        30.20S FOG              
HYANNIS        FOG       65  65 100 E9        30.14F VSB 3/4          
CHATHAM        FOG       65  64  97 E8        30.17F VSB 1/4          
PROVINCETOWN   CLOUDY    68  67  96 SE12      30.17F                  
NANTUCKET      FOG       66  66 100 E9        30.17S VSB 1/2          
MARTHAS VNYRD  CLOUDY    70  68  93 E7        30.14F FOG              
$$
 
MAZALL-242000-
CENTRAL AND WESTERN MASSACHUSETTS
  
CITY           SKY/WX    TMP DP  RH WIND       PRES   REMARKS
WORCESTER      CLOUDY    69  67  93 E3        30.18F                  
FITCHBURG      CLOUDY    74  66  76 VRB3      30.17S                  
ORANGE         CLOUDY    73  67  81 SE7       30.16F                  
SPRINGFIELD    CLOUDY    75  69  80 CALM      30.10F                  
WESTFIELD      CLOUDY    77  70  79 S6        30.13F                  
NORTH ADAMS    MOSUNNY   78  66  66 SE10G16   30.11F                  
PITTSFIELD     MOSUNNY   77  65  66 SW5       30.12F                  
$$
 
RIZALL-242000-
RHODE ISLAND
  
CITY           SKY/WX    TMP DP  RH WIND       PRES   REMARKS
PROVIDENCE     CLOUDY    70  68  93 E5        30.15F                  
NEWPORT        CLOUDY    69  68  96 E5        30.14F                  
BLOCK ISLAND   CLOUDY    69  68  96 NE5         N/A  FOG              
SMITHFIELD     CLOUDY    69  69 100 CALM      30.17S                  
WESTERLY       CLOUDY    72  69  90 E7        30.13F                  
$$
 
CTZALL-242000-
CONNECTICUT
  
CITY           SKY/WX    TMP DP  RH WIND       PRES   REMARKS
BRADLEY INTL   CLOUDY    78  70  76 E5        30.13F                  
HARTFORD       CLOUDY    76  70  82 CALM      30.12F                  
PLAINVILLE     CLOUDY    75  72  90 E3        30.13F                  
BRIDGEPORT     CLOUDY    74  70  87 E13       30.11F                  
DANBURY        CLOUDY    77  72  84 SE6       30.13F                  
GROTON         CLOUDY    74  71  91 E6        30.12F                  
NEW HAVEN      MOSUNNY   81  73  76 SE6       30.11F                  
CHESTER        PTSUNNY   81  72  74 CALM      30.14S                  
MERIDEN        CLOUDY    75  68  78 N3        30.12F                  
WILLIMANTIC    CLOUDY    73  70  90 NE3       30.15S                  
OXFORD         LGT RAIN  73  72  94 E5        30.15F                  
$$

MEZ002-015-021-024-NHZ003-005-008-011-012-014-VTZ005-008-242000-
NORTHERN NEW ENGLAND
  
CITY           SKY/WX    TMP DP  RH WIND       PRES   REMARKS
PORTLAND ME    CLOUDY    70  64  81 S9        30.21R                  
BANGOR ME      CLOUDY    67  65  93 S8        30.22F FOG              
CONCORD NH     CLOUDY    73  65  75 E8        30.16F                  
MANCHESTER NH  CLOUDY    77  63  61 VRB5      30.15F                  
NASHUA NH      CLOUDY    75  68  78 E5        30.16F                  
PORTSMOUTH NH  CLOUDY    71  64  78 E10       30.18S                  
JAFFREY NH     CLOUDY    72  65  78 VRB3      30.18F                  
KEENE NH       CLOUDY    74  66  76 SW6       30.14F                  
BURLINGTON VT  PTSUNNY   84  65  52 S15G24    30.04F                  
MT. WASHINGTON FOG       52  52 100 S18         N/A  VSB 0            
$$

NYZ052-076-242000-
EASTERN NEW YORK
  
CITY           SKY/WX    TMP DP  RH WIND       PRES   REMARKS
ALBANY         PTSUNNY   82  69  64 SE9G17    30.08F                  
NEW YORK CITY  PTSUNNY   76  70  82 NE10G23   30.10F                  
$$
 
ANZALL-242000-
MARINE OBSERVATIONS
  
STATION/POSITION TIME  TEMP    WIND        PRES    VSBY  WAVE
                       AIR SEA DIR/SP/G                  HT/PER
                 (UTC) (F)     (DEG/KT/KT) (MB)    (MI)  (FT/S)
BOSTON BUOY      1850   65 66  100/ 10/ 10 1021.8F         2/ 5
BUZZARDS BAY     1800   68      80/  8/  9 1021.4F
NANTUCKET SOUND  1850   67 76  100/ 12/ 14 1020.3F         2/ 3
MASS BAY-STELLWA 1704   65 64  130/  8/ 10 1022.8R  1 7/8  3/ 6
ISLE OF SHOALS   1800   65      30/  5/  5 1021.9F
S OF BLOCK IS    1856      73                N/A           3/ 6
$$

......................KEY.........................
  SKY/WX - SKY CONDITION/PRESENT WEATHER
  TMP    - TEMPERATURE IN FAHRENHEIT
  DWPT   - DEWPOINT IN FAHRENHEIT
  RH     - RELATIVE HUMIDITY IN PERCENT
  WIND   - DIRECTION AND SPEED IN MPH
  PRES   - MEAN SEA LEVEL PRESSURE IN INCHES OF HG
  WCI    - WIND CHILL INDEX
  VSB    - VISIBILITY IN MILES
  HX     - HEAT INDEX
  TC     - TEMPERATURE IN CELSIUS
  VRB    - VARIABLE WIND DIRECTION
  N/A    - NOT AVAILABLE
  
      

Other recent Regional Weather Roundups

Thu Jul 25, 10:10am EDT

Thu Jul 25, 9:10am EDT

Thu Jul 25, 8:10am EDT

Thu Jul 25, 7:10am EDT

Thu Jul 25, 6:10am EDT

Thu Jul 25, 5:10am EDT

Thu Jul 25, 4:10am EDT

Thu Jul 25, 3:10am EDT

Thu Jul 25, 2:10am EDT

Thu Jul 25, 1:10am EDT

Thu Jul 25, 12:10am EDT

Wed Jul 24, 11:10pm EDT

Wed Jul 24, 10:10pm EDT

Wed Jul 24, 9:10pm EDT

Wed Jul 24, 8:10pm EDT

Wed Jul 24, 7:10pm EDT

Wed Jul 24, 6:10pm EDT

Wed Jul 24, 5:10pm EDT

Wed Jul 24, 4:10pm EDT

Wed Jul 24, 2:10pm EDT

Wed Jul 24, 1:10pm EDT

Wed Jul 24, 12:10pm EDT

Wed Jul 24, 11:10am EDT

Wed Jul 24, 10:10am EDT

Wed Jul 24, 9:10am EDT

Wed Jul 24, 8:10am EDT

Wed Jul 24, 7:10am EDT

Wed Jul 24, 6:10am EDT

Wed Jul 24, 5:10am EDT

Wed Jul 24, 4:10am EDT

Wed Jul 24, 3:10am EDT

Wed Jul 24, 2:10am EDT

Wed Jul 24, 1:10am EDT

Wed Jul 24, 12:10am EDT

Tue Jul 23, 11:10pm EDT

Tue Jul 23, 10:10pm EDT

Tue Jul 23, 9:10pm EDT

Tue Jul 23, 8:10pm EDT

Tue Jul 23, 7:10pm EDT

Tue Jul 23, 6:10pm EDT

Tue Jul 23, 5:10pm EDT

Tue Jul 23, 4:10pm EDT

Tue Jul 23, 3:10pm EDT

Tue Jul 23, 2:10pm EDT

Tue Jul 23, 1:10pm EDT

Tue Jul 23, 12:10pm EDT

Tue Jul 23, 11:10am EDT

Tue Jul 23, 10:10am EDT

Tue Jul 23, 10:10am EDT

Tue Jul 23, 9:10am EDT

Tue Jul 23, 8:10am EDT

Tue Jul 23, 7:10am EDT

Tue Jul 23, 6:10am EDT

Tue Jul 23, 5:10am EDT

Tue Jul 23, 4:10am EDT

Tue Jul 23, 3:10am EDT

Tue Jul 23, 2:10am EDT

Tue Jul 23, 1:10am EDT

Tue Jul 23, 12:10am EDT

Mon Jul 22, 11:10pm EDT

Mon Jul 22, 10:10pm EDT

Mon Jul 22, 9:10pm EDT

Mon Jul 22, 8:10pm EDT

Mon Jul 22, 7:10pm EDT

Mon Jul 22, 6:10pm EDT

Mon Jul 22, 5:10pm EDT

Mon Jul 22, 4:10pm EDT

Mon Jul 22, 3:10pm EDT

Mon Jul 22, 2:10pm EDT

Mon Jul 22, 1:10pm EDT

Mon Jul 22, 12:10pm EDT

Mon Jul 22, 11:10am EDT

Mon Jul 22, 10:10am EDT

Mon Jul 22, 9:10am EDT

Mon Jul 22, 8:10am EDT

Mon Jul 22, 7:10am EDT

Mon Jul 22, 6:10am EDT

Mon Jul 22, 5:10am EDT

Mon Jul 22, 4:10am EDT

Mon Jul 22, 3:10am EDT

Mon Jul 22, 2:10am EDT

Mon Jul 22, 1:10am EDT

Mon Jul 22, 12:10am EDT

Sun Jul 21, 11:10pm EDT

Sun Jul 21, 10:10pm EDT

Sun Jul 21, 9:10pm EDT

Sun Jul 21, 8:10pm EDT

Sun Jul 21, 7:10pm EDT

Sun Jul 21, 6:10pm EDT

Sun Jul 21, 5:10pm EDT

Sun Jul 21, 4:10pm EDT

Sun Jul 21, 3:10pm EDT

Sun Jul 21, 2:10pm EDT

Sun Jul 21, 1:10pm EDT

Sun Jul 21, 12:10pm EDT

Sun Jul 21, 11:10am EDT

Sun Jul 21, 10:10am EDT

Sun Jul 21, 9:10am EDT

Sun Jul 21, 8:10am EDT

Sun Jul 21, 7:10am EDT

Sun Jul 21, 6:10am EDT

Sun Jul 21, 5:10am EDT

Sun Jul 21, 4:10am EDT

Sun Jul 21, 3:10am EDT

Sun Jul 21, 2:10am EDT

Sun Jul 21, 1:10am EDT

Sun Jul 21, 12:10am EDT

Sat Jul 20, 11:10pm EDT

Sat Jul 20, 10:10pm EDT

Sat Jul 20, 9:10pm EDT

Sat Jul 20, 8:10pm EDT

Sat Jul 20, 7:10pm EDT

Sat Jul 20, 6:10pm EDT

Sat Jul 20, 5:10pm EDT

Sat Jul 20, 4:10pm EDT

Sat Jul 20, 3:10pm EDT

Sat Jul 20, 2:10pm EDT

Sat Jul 20, 1:10pm EDT

Sat Jul 20, 12:10pm EDT

Sat Jul 20, 11:10am EDT

Sat Jul 20, 10:10am EDT

Sat Jul 20, 9:10am EDT

Sat Jul 20, 8:10am EDT

Sat Jul 20, 7:10am EDT

Sat Jul 20, 6:10am EDT

Sat Jul 20, 5:10am EDT

Sat Jul 20, 4:10am EDT

Sat Jul 20, 3:10am EDT

Sat Jul 20, 2:10am EDT

Sat Jul 20, 1:10am EDT

Sat Jul 20, 12:10am EDT

Fri Jul 19, 11:10pm EDT

Fri Jul 19, 10:10pm EDT

Fri Jul 19, 9:10pm EDT

Fri Jul 19, 8:10pm EDT

Fri Jul 19, 7:10pm EDT

Fri Jul 19, 6:10pm EDT

Fri Jul 19, 5:10pm EDT

Fri Jul 19, 4:10pm EDT

Fri Jul 19, 3:10pm EDT

Fri Jul 19, 2:10pm EDT

Fri Jul 19, 1:10pm EDT

Fri Jul 19, 12:10pm EDT

Fri Jul 19, 11:10am EDT

Fri Jul 19, 10:10am EDT

Fri Jul 19, 9:10am EDT

Fri Jul 19, 8:10am EDT

Fri Jul 19, 7:10am EDT

Fri Jul 19, 6:10am EDT

Fri Jul 19, 5:10am EDT

Fri Jul 19, 4:10am EDT

Fri Jul 19, 3:10am EDT

Fri Jul 19, 2:10am EDT

Fri Jul 19, 1:10am EDT

Fri Jul 19, 12:10am EDT

Thu Jul 18, 11:10pm EDT

Thu Jul 18, 10:10pm EDT

Thu Jul 18, 9:10pm EDT

Thu Jul 18, 8:10pm EDT

Thu Jul 18, 7:10pm EDT

Thu Jul 18, 6:10pm EDT

Thu Jul 18, 5:10pm EDT

Thu Jul 18, 4:10pm EDT

Thu Jul 18, 3:10pm EDT

Thu Jul 18, 2:10pm EDT

Thu Jul 18, 1:10pm EDT

Thu Jul 18, 12:10pm EDT

Thu Jul 18, 11:10am EDT